Home > Weather > Moreno Valley > Past weeks

Flag for USA Past Weather in Moreno Valley, California, USA — Yesterday and Last 2 Weeks

Now
95 °F

Sunny.


Feels Like: 91 °F
Forecast: 69 / 99 °F
Wind: 10 mph from Northwest

Location: Riverside / March Air Force Base

Current Time: Jul 27, 2016 at 12:21:48 PM

Latest Report: Jul 27, 2016 at 11:58 AM


Visibility: 10 mi

Pressure: 29.90 "Hg

Humidity: 17%

Dew Point: 44 °F

Location of Moreno ValleyLocation

Past Weather in Moreno Valley — Graph

°F

Moreno Valley Temperature Yesterday

Maximum temperature yesterday: 100 °F (at 2:58 PM)
Minimum temperature yesterday: 69 °F (at 5:58 AM)
Average temperature yesterday: 85 °F

High & Low Weather Summary for the Past Weeks

 TemperatureHumidityPressure
High108 °F (Jul 23, 1:58 PM)98% (Jul 13, 5:58 AM)30.01 "Hg (Jul 13, 5:58 AM)
Low60 °F (Jul 18, 5:58 AM)6% (Jul 20, 12:58 PM)29.75 "Hg (Jul 23, 2:58 PM)
Average81 °F40%29.91 "Hg
* Reported Jul 12 10:58 AM — Jul 27 10:58 AM, Moreno Valley, Weather by CustomWeather, © 2016

Note: Actual official high and low records may vary slightly from our data, if they occured in-between our weather recording intervals... More about our weather records

Advertising

Moreno Valley Weather History for the Previous 24 Hours

Scroll right to see more
 ConditionsComfort  
Time TempWeatherWind HumidityBarometerVisibility
10:58 AM
Wed, Jul 27
93 °FSunny.2 mph20%29.91 "Hg10 mi
9:58 AM89 °FSunny.1 mph23%29.91 "Hg10 mi
8:58 AM83 °FSunny.No wind28%29.91 "Hg10 mi
7:58 AM80 °FSunny.No wind27%29.90 "Hg10 mi
6:58 AM76 °FSunny.No wind28%29.89 "Hg10 mi
5:58 AM72 °FClear.No wind34%29.87 "Hg10 mi
4:58 AM74 °FPassing clouds.2 mph35%29.87 "Hg10 mi
3:58 AM72 °FClear.2 mph40%29.86 "Hg10 mi
2:58 AM74 °FClear.1 mph39%29.85 "Hg10 mi
1:58 AM74 °FClear.No wind40%29.85 "Hg10 mi
12:58 AM75 °FClear.5 mph43%29.86 "Hg10 mi
11:58 PM
Tue, Jul 26
78 °FClear.3 mph39%29.88 "Hg10 mi
10:58 PM78 °FClear.6 mph37%29.88 "Hg10 mi
9:58 PM81 °FClear.8 mph31%29.88 "Hg10 mi
8:58 PM83 °FClear.7 mph28%29.87 "Hg10 mi
7:58 PM87 °FSunny.14 mph22%29.84 "Hg10 mi
6:58 PM90 °FSunny.14 mph23%29.82 "Hg10 mi
5:58 PM95 °FSunny.15 mph24%29.80 "Hg10 mi
4:58 PM98 °FSunny.16 mph21%29.80 "Hg10 mi
3:58 PM100 °FSunny.15 mph22%29.81 "Hg10 mi
2:58 PM100 °FSunny.10 mph21%29.82 "Hg10 mi
1:58 PM100 °FSunny.12 mph22%29.84 "Hg10 mi
12:58 PM98 °FSunny.13 mph20%29.85 "Hg10 mi
Weather by CustomWeather, © 2016

See weather overviewHow to use our weather pages